Regional Weather Roundup
Issued by NWS Newport/Morehead, NC

Current Version | Previous Version | Graphics & Text | Print | Product List | Glossary On
Versions: 1 2 3 4 5 6 7 8 9 10 11 12 13 14 15 16 17 18 19 20 21 22 23 24 25 26 27 28 29 30 31 32 33 34 35 36 37 38 39 40 41 42 43 44 45 46 47 48 49 50
000 ASUS42 KMHX 230314 RWRMHX WEATHER ROUNDUP FOR EASTERN NORTH CAROLINA NATIONAL WEATHER SERVICE NEWPORT/MOREHEAD CITY NC 1000 PM EST MON JAN 22 2018 NOTE: "FAIR" INDICATES FEW OR NO CLOUDS BELOW 12,000 FEET WITH NO SIGNIFICANT WEATHER AND/OR OBSTRUCTIONS TO VISIBILITY NCZ015>017-031-032-045>047-102-103-230400- NORTH COAST CITY SKY/WX TMP DP RH WIND PRES REMARKS EDENTON FAIR 55 50 83 S6 30.08F ELIZABETH CITY FAIR 52 52 100 S6 30.08F KITTY HAWK FAIR 59 53 80 CALM 30.07F MANTEO MOCLDY 54 51 90 S8 30.09F $$ NCZ045>047-081-094-103-104-230400- CENTRAL COAST CITY SKY/WX TMP DP RH WIND PRES REMARKS FRISCO NOT AVBL $$ NCZ095-097-098-100-101-230400- SOUTHERN COAST CITY SKY/WX TMP DP RH WIND PRES REMARKS BEAUFORT CLOUDY 62 59 90 S12 30.10S CEDAR ISLAND NOT AVBL JACKSONVILLE FAIR 57 57 100 S3 30.08R PINEY ISLAND NOT AVBL WILMINGTON FAIR 56 55 97 S7 30.09R $$ NCZ011>013-027>030-043-044-078>080-089-090>093-098-230400- COASTAL PLAIN CITY SKY/WX TMP DP RH WIND PRES REMARKS AHOSKIE FAIR 52 49 89 CALM 30.07S CLINTON MOCLDY 58 58 100 CALM 30.06F ELIZABETHTOWN NOT AVBL GOLDSBORO MOCLDY 58 56 92 S6 30.05S GREENVILLE FAIR 57 55 94 S6 30.08F HAVELOCK NOT AVBL KENANSVILLE MOCLDY 57 55 94 SE3 30.08S KINSTON CLOUDY 58 56 92 S7 30.08S NEW BERN FAIR 57 56 96 S7 30.09S RICHLANDS FAIR 57 56 96 S5 30.09R ROCKY MOUNT MOCLDY 56 54 93 S6 30.05F WASHINGTON FAIR 55 52 90 CALM 30.07F WHITEVILLE FAIR 59 58 97 S3 30.07S $$ AMZ130-135-150-152-154-156-158-170-250-252-270-ANZ085-086-088-633-658-670-230400- MARINE OBSERVATIONS STATION/POSITION TIME TEMP WIND PRES WAVE SWELL AIR SEA DIR/SP/G HT/PER HT/PER (UTC) (F) (DEG/KT/KT) (MB) (FT/S) (FT/S) CHESAPEAKE LIGHT NOT AVBL 64 E VA BEACH 0250 63 60 180/ 14/ 14 1019.0 2/ 3 DUCK 0248 47 41 180/ 6/ 7 1018.0 2 E DUCK 0300 41 N/A 1/ 9 OREGON INLET 0236 58 44 160/ 6/ 9 1019.0 13E OREGON INLT 0248 42 N/A 1/ 9 2/ 9 HATTERAS CG 0248 62 52 180/ 5/ 9 1018.9 DIAMOND BUOY 0300 70 70 190/ 16/ 17 1019.5 CAPE LOOKOUT 0300 220/ 8/ 10 1019.5 BEAUFORT LAB 0248 55 48 180/ 6/ 8 1019.1 30 SE NEW RVR IN 0208 63 58 200/ 8/ 10 1019.3 30 SE NEW RVR IN 0300 58 N/A 3/ 4 27 SE WRIGHTSVLE 0208 66 63 170/ 14/ 17 1019.0 5 SE WRIGHTSVLE 0208 52 47 140/ 6/ 8 1018.5 225 S CAPE HAT 0250 69 70 140/ 16/ 17 1021.9 2/ 9 2/ 9 41 SE CHARLESTON 0300 71 70 170/ 17/ 21 1018.2 $$

USA.gov is the U.S. government's official web portal to all federal, state and local government web resources and services.